Content
SEND FEEDBACK

Daily
Averages
Monthly
Summary
Turkmenistan

ASHGABAT, TURKMENISTAN


Home > Asia > Turkmenistan
Elevation: 775 feet     Latitude: 37 58N     Longitude: 058 20E

WEATHER
 
SELECT A DAY
Number of Records: 177,354;   Date Range: 3/15/97 - 8/12/14
 
SHARE

PRINT THIS DATA

[ ← Previous Day ]
WEATHER ALMANAC - MARCH 15, 2013
[ Next Day → ]
[ °C ]   °F
Weather ElementAverageHighLow
Temperature60.9 °F69.8 °F (4:00 pm)54 °F (8:00 am)
Dewpoint43.9 °F50 °F (1:00 am)41 °F (7:00 am)
Humidity52.5 %72 % (2:00 am)32 % (5:00 pm)
Barometer30.19 in30.28 in (11:00 pm)30.04 in (1:00 am)
Wind Speed7.7 mph15.7 mph (7:00 am)
Weather ElementAverage
Visibility6.1 mi
Wind DirectionWSW (231.3 °)

Weather ElementTotal
Precipitation---
Heating Degree Days3.1 (Base 65)
Growing Degree Days11.9 (Base 50)
Averaged from 31 records on March 15, 2013
WEATHER CONDITIONS BREAKOUT
WIND DIRECTION BREAKOUT
WEATHER BY HOUR - MARCH 15, 2013
[ °C ]   °F
Local TimeTemperatureDewpointHumidityBarometerVisibilityWind DirectionWind SpeedGust SpeedPrecipitationEventsConditions
1:00 AM60.8 °F50.0 °F68 %30.04 in6.2 miEast (80°)4.5 mphMostly Cloudy
2:00 AM58.0 °F50.0 °F66 %30.06 in6.0 miWest (270°)4.5 mphPartly Cloudy
2:00 AM57.2 °F48.2 °F72 %30.06 in6.2 miWest (260°)4.5 mphScattered Clouds
3:00 AM57.2 °F48.2 °F72 %30.06 in6.2 miWest (270°)8.9 mphPartly Cloudy
4:00 AM59.0 °F46.4 °F63 %30.06 in6.2 miWNW (300°)13.4 mphClear
5:00 AM55.0 °F47.0 °F68 %30.09 in6.0 miWest (270°)11.2 mphPartly Cloudy
5:00 AM57.2 °F46.4 °F67 %30.09 in6.2 miWNW (290°)11.2 mphClear
6:00 AM55.4 °F42.8 °F63 %30.09 in6.2 miWNW (290°)11.2 mphClear
7:00 AM55.4 °F41.0 °F58 %30.15 in6.2 miWest (280°)15.7 mphMostly Cloudy
8:00 AM54.0 °F41.0 °F50 %30.17 in6.0 miWest (280°)11.2 mphPartly Cloudy
8:00 AM55.4 °F41.0 °F58 %30.18 in6.2 miWest (280°)13.4 mphMostly Cloudy
9:00 AM57.2 °F42.8 °F59 %30.18 in6.2 miWNW (300°)13.4 mphMostly Cloudy
10:00 AM59.0 °F42.8 °F55 %30.21 in6.2 miWNW (300°)13.4 mphMostly Cloudy
11:00 AM62.0 °F42.0 °F36 %30.24 in6.0 miNNE (30°)11.2 mphOvercast
11:00 AM60.8 °F44.6 °F55 %30.24 in6.2 miWNW (290°)11.2 mphMostly Cloudy
12:00 PM62.6 °F42.8 °F48 %30.24 in6.2 miNW (310°)11.2 mphMostly Cloudy
1:00 PM62.6 °F42.8 °F48 %30.24 in6.2 miNW (310°)11.2 mphOvercast
2:00 PM65.0 °F43.0 °F34 %30.24 in6.0 miNW (310°)8.9 mphScattered Clouds
2:00 PM66.2 °F41.0 °F40 %30.24 in6.2 miNW (310°)6.7 mphMostly Cloudy
3:00 PM68.0 °F41.0 °F37 %30.24 in6.2 miNorth (350°)6.7 mphMostly Cloudy
4:00 PM69.8 °F41.0 °F35 %30.24 in6.2 miWest (280°)4.5 mphMostly Cloudy
5:00 PM67.0 °F44.0 °F32 %30.22 in6.0 miCalmScattered Clouds
5:00 PM69.8 °F41.0 °F35 %30.21 in6.2 miVariable2.2 mphScattered Clouds
6:00 PM68.0 °F41.0 °F37 %30.21 in6.2 miVariable2.2 mphScattered Clouds
7:00 PM66.2 °F41.0 °F40 %30.24 in6.2 miCalmScattered Clouds
8:00 PM64.0 °F45.0 °F38 %30.24 in6.0 miSSW (210°)4.5 mphPartly Cloudy
8:00 PM64.4 °F42.8 °F45 %30.24 in6.2 miSW (220°)4.5 mphMostly Cloudy
9:00 PM60.8 °F44.6 °F55 %30.27 in6.2 miSSW (200°)4.5 mphScattered Clouds
10:00 PM57.2 °F44.6 °F63 %30.27 in6.2 miSW (230°)4.5 mphPartly Cloudy
11:00 PM56.0 °F47.0 °F62 %30.28 in6.0 miSSW (210°)2.2 mphScattered Clouds
11:00 PM55.4 °F44.6 °F67 %30.27 in6.2 miSSW (210°)4.5 mphScattered Clouds
Hourly data recorded from UTAA, located miles away from Ashgabat, Turkmenistan







STORIES FROM OUR PARTNERS